Temp
18 18 19 19 20 20 21 21 21 22 22 23 23 23 24 24 24 25 26 26 25 25 24 24 25 24 25 25 26 27 19 20 21 22 25 25 25 23 25 24 24 24 24 24 23
18 18 19 19 19 20 21 21 21 22 22 23 23 24 24 24 25 26 26 26 26 24 24 24 25 25 24 26 27 24 19 22 23 25 26 29 27 25 25 23 23 24 24 23 23
18 18 18 19 20 20 20 21 21 22 22 23 23 24 24 25 26 26 27 27 26 25 25 25 24 25 25 27 27 25 24 25 26 28 27 27 28 28 25 23 24 25 23 23 23
17 18 18 19 19 20 20 21 21 22 22 23 23 24 25 25 26 26 27 27 26 25 25 25 25 25 26 26 28 27 28 28 29 29 29 26 28 27 28 28 27 26 24 23 23
17 18 18 19 19 20 20 21 21 22 22 23 23 24 24 24 27 26 27 27 26 26 26 26 25 26 26 26 27 27 28 30 30 29 29 30 27 28 27 28 26 24 24 23 23
17 18 18 19 19 20 20 21 21 22 22 23 23 24 23 23 26 26 26 27 27 26 26 25 26 27 27 27 27 29 29 29 28 28 28 29 28 29 26 27 24 23 22 22 22
17 17 18 19 19 20 20 21 22 22 22 22 23 23 23 26 26 26 26 26 26 27 26 27 27 27 27 26 28 28 27 27 27 27 27 29 28 26 26 25 24 21 21 19 19
17 17 18 18 19 20 21 21 22 22 22 22 23 23 25 26 26 26 26 26 26 26 26 27 27 27 28 28 27 26 23 24 27 27 27 28 25 24 25 24 21 22 23 24 23
17 17 18 18 19 20 21 21 22 22 23 22 22 22 24 25 26 26 26 27 27 27 27 27 27 27 27 23 21 21 24 23 26 27 25 27 26 24 24 22 21 21 22 24 20
16 17 18 18 19 20 21 21 22 22 22 22 21 21 25 26 26 26 26 26 26 26 25 26 27 22 20 20 20 24 24 23 24 27 26 26 25 25 24 18 17 22 22 21 20
16 16 17 18 19 20 22 21 22 22 22 23 23 24 25 26 27 27 26 26 26 27 24 26 22 20 21 22 23 25 25 25 25 26 26 25 25 25 22 19 19 19 19 21 21
15 16 17 18 19 20 20 21 21 21 20 22 23 23 26 26 25 27 27 26 26 23 25 23 21 23 24 24 25 25 25 24 25 26 24 25 25 22 19 18 19 20 25 21 17
15 16 17 19 19 20 20 20 21 21 20 21 24 25 27 26 25 27 27 27 25 24 24 21 24 26 25 25 25 25 26 26 26 27 25 24 24 23 21 21 19 20 25 22 19
14 15 16 18 19 20 20 20 21 21 16 20 22 25 26 27 26 27 27 27 25 24 24 23 26 26 26 26 26 24 27 27 28 26 24 24 22 23 21 19 19 19 21 21 21
14 15 16 16 18 19 19 20 21 21 19 26 26 28 27 27 28 28 28 27 24 25 23 23 26 26 26 27 27 25 27 27 29 25 24 25 22 21 23 20 19 19 20 22 23
14 14 16 15 17 19 19 20 21 17 19 25 28 26 25 27 28 28 27 27 27 25 25 24 27 27 26 28 28 29 29 22 21 20 21 23 23 21 21 23 22 22 20 21 21
14 15 15 16 18 18 18 20 15 16 22 26 26 26 24 24 26 26 25 24 23 22 21 23 25 26 28 26 28 27 21 20 21 20 21 22 22 20 19 23 24 23 22 23 24
15 15 16 17 17 17 18 15 16 19 20 24 24 25 24 24 25 25 23 22 22 23 21 21 22 25 28 26 26 26 21 19 22 20 21 22 23 22 20 21 23 26 23 22 21
15 16 17 18 17 17 17 13 15 18 23 23 23 24 23 25 26 24 22 24 25 22 22 21 22 27 27 28 27 26 24 22 21 21 20 20 22 20 21 22 22 22 21 21 22
14 15 18 17 17 16 13 13 16 21 21 20 22 23 22 23 24 24 23 24 26 26 23 22 22 26 28 29 27 27 25 24 18 23 22 20 21 19 20 23 20 15 17 19 19
14 13 17 17 16 16 12 13 18 21 21 20 19 20 22 22 22 22 23 25 27 26 25 22 22 26 27 26 24 25 25 22 19 18 20 19 19 19 19 20 18 16 17 20 21
12 10 16 16 14 13 13 17 19 20 20 20 21 20 22 23 22 23 24 24 27 28 23 22 19 21 23 25 28 26 24 21 19 22 18 18 20 19 20 18 20 17 18 20 22
10 12 16 16 12 11 14 17 19 19 19 20 20 22 23 23 23 22 23 26 26 25 25 22 19 20 23 23 25 27 25 22 18 17 20 19 20 18 18 18 18 18 17 19 21
10 8 15 16 17 14 15 15 17 20 20 21 20 21 20 22 20 22 22 25 26 26 28 24 18 21 23 22 24 26 26 26 21 19 21 20 20 17 17 17 16 17 19 19 19
10 9 10 8 11 11 14 15 16 17 20 21 19 20 20 21 21 20 21 22 24 25 25 21 22 23 22 24 26 26 26 26 24 23 23 23 22 20 17 15 17 19 19 21 21
8 8 9 9 12 12 13 16 16 16 18 18 19 20 21 19 19 20 20 21 23 22 21 18 22 24 24 25 25 26 25 25 27 28 24 20 21 18 17 18 17 18 18 18 19
7 8 7 10 10 11 12 13 14 14 15 17 17 18 19 20 22 23 23 22 22 23 21 20 19 18 21 22 23 23 26 26 26 26 23 22 21 17 16 17 17 18 16 17 20
Height
1528 1527 1525 1524 1522 1521 1519 1517 1515 1513 1510 1508 1506 1505 1503 1502 1501 1501 1500 1503 1503 1505 1507 1508 1510 1512 1512 1512 1513 1512 1526 1533 1523 1522 1517 1513 1509 1511 1509 1504 1506 1505 1505 1508 1510
1528 1526 1524 1523 1522 1520 1518 1517 1514 1512 1510 1508 1505 1503 1501 1500 1499 1498 1499 1499 1502 1503 1505 1507 1509 1512 1512 1512 1512 1513 1530 1520 1509 1505 1508 1505 1501 1507 1508 1504 1505 1505 1508 1512 1514
1527 1526 1524 1523 1521 1520 1518 1516 1514 1512 1509 1507 1505 1502 1501 1499 1498 1498 1498 1499 1500 1502 1505 1508 1509 1512 1512 1511 1510 1510 1516 1505 1506 1500 1495 1502 1498 1498 1504 1506 1500 1499 1507 1514 1514
1526 1525 1524 1522 1520 1518 1517 1515 1513 1511 1509 1506 1504 1502 1500 1499 1502 1498 1498 1499 1499 1501 1504 1506 1508 1510 1509 1509 1507 1510 1504 1504 1498 1496 1494 1492 1493 1493 1491 1490 1493 1499 1503 1512 1514
1525 1524 1522 1521 1519 1517 1515 1514 1512 1510 1508 1506 1503 1501 1500 1499 1497 1497 1497 1498 1499 1501 1503 1505 1506 1508 1508 1506 1505 1505 1498 1496 1496 1493 1495 1487 1491 1494 1493 1490 1496 1504 1509 1512 1517
1524 1523 1521 1520 1518 1516 1514 1512 1511 1509 1507 1505 1503 1501 1500 1499 1494 1495 1496 1497 1498 1500 1502 1504 1504 1507 1506 1506 1508 1503 1500 1495 1492 1488 1488 1487 1490 1490 1496 1495 1503 1514 1523 1526 1527
1523 1521 1519 1518 1516 1514 1512 1511 1509 1507 1505 1504 1502 1499 1498 1495 1494 1494 1495 1496 1497 1499 1502 1502 1504 1507 1506 1505 1504 1501 1500 1491 1488 1484 1485 1485 1491 1492 1494 1500 1511 1517 1516 1527 1530
1521 1519 1518 1516 1515 1512 1511 1508 1506 1504 1503 1502 1500 1499 1495 1493 1492 1492 1494 1495 1497 1498 1501 1502 1503 1504 1504 1505 1503 1502 1505 1511 1485 1480 1485 1485 1504 1496 1502 1501 1504 1505 1504 1516 1519
1519 1517 1516 1514 1512 1510 1508 1506 1503 1501 1500 1500 1499 1498 1493 1490 1489 1491 1493 1495 1496 1498 1499 1499 1502 1501 1503 1510 1519 1513 1521 1513 1493 1481 1482 1485 1495 1496 1500 1504 1503 1502 1502 1502 1514
1517 1515 1514 1512 1510 1508 1506 1503 1500 1498 1498 1497 1497 1500 1490 1488 1487 1488 1491 1494 1494 1496 1498 1499 1499 1503 1507 1517 1536 1520 1517 1512 1506 1482 1482 1488 1490 1486 1494 1502 1503 1500 1498 1499 1502
1515 1513 1511 1510 1509 1507 1505 1503 1504 1501 1497 1494 1494 1490 1486 1487 1486 1487 1490 1492 1494 1495 1499 1498 1506 1513 1509 1506 1502 1505 1511 1510 1495 1482 1488 1487 1489 1484 1493 1500 1505 1504 1501 1501 1506
1512 1510 1508 1508 1507 1506 1505 1505 1506 1507 1494 1488 1486 1486 1483 1486 1489 1486 1489 1492 1492 1498 1497 1503 1509 1495 1497 1499 1501 1501 1506 1508 1492 1482 1490 1486 1490 1492 1494 1497 1496 1498 1496 1503 1513
1509 1508 1505 1505 1505 1505 1504 1505 1503 1503 1498 1479 1475 1474 1476 1482 1484 1484 1487 1489 1490 1496 1497 1507 1491 1487 1493 1495 1500 1499 1501 1496 1495 1481 1486 1491 1498 1491 1497 1495 1500 1500 1497 1498 1505
1507 1505 1503 1501 1505 1502 1503 1502 1501 1500 1508 1483 1470 1464 1469 1475 1477 1479 1481 1486 1489 1494 1495 1497 1484 1487 1489 1494 1491 1506 1484 1485 1487 1492 1511 1490 1528 1501 1498 1502 1500 1498 1498 1493 1490
1505 1503 1501 1500 1499 1500 1501 1499 1499 1500 1523 1466 1463 1461 1460 1469 1470 1472 1476 1482 1486 1488 1492 1492 1482 1484 1488 1483 1479 1490 1477 1482 1480 1493 1499 1497 1517 1509 1493 1504 1498 1496 1498 1492 1487
1501 1500 1497 1498 1497 1499 1498 1499 1500 1513 1519 1468 1458 1460 1464 1466 1466 1468 1473 1479 1482 1486 1485 1484 1478 1480 1478 1471 1472 1469 1475 1489 1495 1506 1527 1502 1511 1512 1502 1491 1488 1488 1492 1488 1488
1498 1497 1494 1495 1496 1497 1497 1500 1516 1524 1477 1469 1466 1459 1462 1465 1465 1467 1475 1483 1491 1503 1502 1488 1480 1473 1473 1478 1469 1471 1497 1531 1530 1535 1535 1500 1510 1504 1493 1483 1480 1480 1489 1485 1488
1494 1492 1490 1490 1493 1495 1497 1503 1519 1492 1484 1467 1467 1462 1470 1463 1464 1468 1476 1486 1481 1483 1499 1504 1505 1471 1463 1469 1476 1476 1493 1526 1538 1541 1528 1500 1509 1497 1481 1488 1483 1480 1482 1481 1488
1489 1486 1484 1486 1489 1493 1497 1515 1506 1491 1476 1475 1469 1469 1470 1462 1463 1468 1474 1475 1470 1475 1497 1500 1494 1461 1461 1462 1466 1474 1490 1481 1507 1513 1527 1514 1499 1490 1481 1479 1475 1485 1484 1491 1494
1484 1481 1478 1483 1485 1491 1497 1503 1491 1480 1479 1478 1482 1473 1482 1474 1472 1471 1472 1463 1463 1463 1465 1477 1496 1461 1457 1460 1456 1460 1465 1494 1513 1521 1529 1519 1506 1505 1493 1481 1481 1500 1506 1504 1515
1484 1480 1478 1479 1485 1490 1500 1496 1483 1479 1482 1482 1483 1484 1476 1477 1475 1477 1472 1458 1451 1455 1459 1469 1482 1467 1463 1467 1473 1468 1475 1483 1494 1508 1525 1533 1517 1481 1483 1486 1487 1496 1497 1497 1500
1484 1484 1479 1481 1488 1491 1493 1486 1483 1479 1481 1482 1475 1474 1470 1468 1472 1471 1467 1463 1454 1450 1464 1458 1475 1487 1474 1454 1453 1456 1467 1476 1505 1503 1508 1511 1510 1473 1474 1485 1485 1491 1487 1484 1483
1487 1484 1485 1484 1493 1494 1487 1484 1481 1480 1479 1478 1475 1468 1464 1466 1473 1467 1461 1454 1457 1453 1454 1452 1477 1494 1479 1467 1455 1457 1458 1462 1476 1489 1499 1514 1506 1476 1474 1476 1481 1481 1483 1477 1476
1490 1489 1484 1486 1483 1485 1487 1485 1482 1475 1473 1472 1470 1469 1467 1464 1465 1467 1463 1454 1452 1452 1445 1443 1468 1472 1482 1476 1461 1462 1457 1454 1468 1495 1489 1493 1487 1484 1479 1479 1478 1478 1480 1483 1481
1493 1493 1495 1496 1487 1488 1486 1483 1479 1478 1470 1467 1465 1465 1466 1467 1466 1468 1461 1458 1450 1449 1446 1449 1464 1460 1460 1459 1455 1457 1458 1454 1464 1462 1476 1471 1473 1468 1469 1477 1475 1482 1484 1480 1475
1497 1497 1496 1493 1490 1488 1483 1481 1480 1476 1470 1467 1470 1461 1458 1464 1464 1467 1463 1462 1457 1450 1450 1451 1464 1455 1458 1452 1453 1457 1452 1452 1445 1443 1454 1464 1466 1457 1467 1472 1477 1480 1480 1481 1484
1499 1499 1499 1495 1491 1491 1488 1486 1483 1479 1471 1469 1468 1462 1458 1452 1449 1452 1454 1454 1453 1453 1454 1457 1463 1471 1474 1460 1459 1472 1452 1449 1448 1444 1449 1465 1453 1454 1466 1473 1472 1472 1477 1477 1481
Wind_Speed
7 8 8 8 9 10 10 11 12 11 12 11 11 12 11 9 9 11 11 3 6 7 4 7 15 13 4 1 5 2 4 2 3 3 2 27 10 26 7 12 7 14 6 27 31
7 8 8 9 9 10 10 11 12 12 12 12 12 12 12 11 11 6 2 4 7 5 7 12 18 10 2 3 3 4 3 7 8 6 6 7 20 21 10 10 4 12 18 29 29
8 9 9 9 10 10 11 11 12 12 12 13 12 12 12 12 5 4 4 4 5 6 9 12 7 6 6 4 6 6 6 5 6 21 23 12 13 7 17 3 16 28 30 31 29
8 9 10 10 11 11 11 11 12 12 12 13 12 12 12 9 1 3 3 2 4 8 16 12 7 4 4 4 5 3 13 16 24 26 8 5 9 5 15 13 26 30 35 33 27
9 9 10 10 11 12 12 11 12 13 13 13 12 11 11 6 4 4 4 1 3 11 16 10 6 4 3 3 9 3 8 17 12 9 10 11 8 8 11 12 27 33 32 30 23
10 10 10 11 11 12 12 12 12 13 13 13 12 11 9 5 2 5 6 4 5 9 13 10 5 4 8 4 1 7 20 19 8 14 6 4 8 9 5 17 34 27 14 10 11
10 10 11 11 12 12 13 13 12 13 13 13 11 11 12 12 5 6 8 4 4 7 11 9 3 7 10 7 11 15 6 9 3 3 1 9 1 3 22 30 29 22 17 9 17
11 10 11 11 12 12 13 14 14 13 13 12 10 10 9 4 8 9 6 4 7 9 5 2 7 16 6 6 11 6 5 4 7 3 3 8 6 5 23 33 28 25 19 16 21
12 11 11 11 12 12 13 15 15 14 12 10 8 6 8 7 14 10 9 4 7 4 4 8 12 7 5 4 5 6 2 5 8 5 3 2 3 18 21 28 25 22 14 17 20
13 13 12 11 12 13 13 16 10 6 4 7 8 6 11 8 16 18 12 6 7 6 10 8 2 2 4 4 4 5 3 4 7 5 7 3 9 3 33 28 26 31 17 25 28
15 15 14 11 11 13 9 10 6 2 15 10 7 8 12 6 8 13 16 12 13 6 3 3 3 8 9 9 8 4 5 9 6 7 2 4 4 3 17 30 30 27 17 26 35
16 16 16 13 10 10 8 5 5 11 12 22 23 25 26 13 7 12 15 12 9 5 2 4 8 12 5 7 8 9 10 8 8 7 4 10 11 11 9 11 29 30 21 20 23
15 16 16 14 10 8 4 10 7 11 6 15 20 23 30 21 15 17 22 20 4 5 5 7 11 3 8 10 9 8 5 5 8 2 1 6 7 5 4 11 20 24 22 14 17
15 15 15 12 7 8 1 5 3 9 3 7 6 11 19 23 7 23 23 19 5 9 7 8 17 16 13 9 7 5 10 7 6 3 4 7 4 2 5 6 8 18 25 20 19
15 15 11 12 7 6 4 2 2 3 2 3 5 2 16 18 5 18 24 24 9 6 7 9 4 3 6 9 7 10 6 7 3 2 3 6 5 6 3 12 15 22 30 17 25
16 15 15 11 11 7 6 3 1 5 6 5 5 7 7 14 9 5 19 26 17 5 8 11 19 4 7 12 9 5 1 7 6 3 4 5 5 5 2 5 3 13 31 18 28
16 14 18 13 2 5 1 1 4 3 5 2 2 4 6 6 6 5 7 7 7 3 5 7 12 9 13 8 4 4 6 3 4 4 6 4 3 7 5 2 3 10 20 26 21
17 16 17 15 11 9 5 5 3 6 7 4 6 1 4 5 6 6 7 6 6 4 3 4 8 8 3 9 8 5 9 6 5 4 6 5 3 5 7 11 7 15 16 32 28
18 14 17 10 14 13 8 3 8 6 4 7 8 2 5 6 4 7 10 13 14 12 9 6 8 3 7 5 8 5 3 7 6 2 3 3 3 7 8 5 22 14 26 26 28
19 14 13 9 17 18 4 5 5 3 6 6 2 3 6 7 3 2 5 8 11 18 10 8 6 12 19 6 6 11 5 2 3 2 5 5 4 5 5 5 14 18 20 19 5
13 9 6 20 20 11 4 6 5 8 12 6 5 5 3 1 1 2 5 7 18 13 18 7 5 18 2 5 6 2 1 5 5 5 5 2 6 6 10 4 11 17 25 32 22
5 2 13 25 6 2 2 3 7 5 16 6 4 6 6 2 2 4 3 3 23 14 9 11 6 8 12 7 4 7 9 6 5 6 3 5 5 5 3 12 22 18 29 29 26
13 5 12 26 3 2 5 6 10 12 8 5 6 4 7 3 2 2 5 6 13 7 4 7 4 2 10 7 5 2 5 5 4 4 6 5 6 2 2 7 7 19 17 32 26
5 4 6 15 5 3 3 5 5 11 11 14 9 6 6 4 4 4 6 8 22 8 11 6 3 7 10 8 3 4 6 3 6 4 4 6 6 5 7 5 12 18 21 23 18
5 3 7 3 5 6 2 4 8 8 7 4 6 6 8 3 3 5 6 7 11 5 5 4 4 5 6 5 2 1 4 9 7 6 6 6 11 14 16 9 14 22 18 23 25
4 6 8 8 12 6 3 3 9 11 5 8 4 15 8 7 8 7 5 1 5 6 5 4 3 1 3 3 5 2 7 8 7 6 3 9 5 6 20 21 17 22 27 25 24
6 4 2 6 7 3 3 7 8 12 9 16 13 9 7 10 17 12 8 6 5 4 2 3 2 3 3 4 5 3 3 3 4 5 8 4 7 12 14 18 25 26 27 33 28
Wind_Direction
10 9 8 5 4 359 360 357 355 353 349 346 341 337 330 319 305 292 286 220 165 200 155 135 138 138 153 279 233 176 62 223 254 165 228 146 161 205 246 154 199 195 198 164 160
1 357 356 353 351 352 353 350 351 349 347 346 341 336 330 326 317 333 313 167 180 175 170 141 133 140 188 220 222 125 130 219 218 216 172 186 197 181 187 164 239 166 139 158 163
351 347 345 342 343 343 343 342 344 343 343 342 339 335 330 334 339 52 51 141 138 157 146 152 155 202 220 227 217 191 213 203 246 269 257 202 267 235 146 194 205 171 152 165 166
340 337 337 337 334 333 334 335 334 334 336 338 335 333 328 326 191 22 28 127 150 150 157 169 201 219 208 214 230 265 251 248 260 249 269 204 221 214 175 192 196 167 162 169 178
331 334 333 331 330 328 327 327 325 325 327 332 330 330 330 314 261 311 329 248 173 165 161 164 222 207 225 264 331 245 291 311 319 267 298 265 174 202 228 175 170 154 165 175 182
325 327 330 328 328 323 322 319 318 316 317 323 322 319 314 290 300 331 315 253 199 175 172 183 195 244 281 273 120 296 307 298 3 37 29 26 156 152 91 157 152 144 129 138 198
316 322 325 325 325 321 320 315 312 307 308 312 311 308 293 268 279 297 320 233 222 187 167 174 211 263 309 319 339 310 315 319 324 283 173 30 352 115 154 148 130 122 107 333 330
310 316 319 320 321 320 320 312 307 300 299 302 300 299 269 293 237 260 302 205 145 159 196 266 303 281 276 316 333 338 39 359 278 258 182 75 270 110 136 133 135 141 138 213 286
306 312 312 316 319 320 319 313 308 296 289 287 287 271 267 214 232 245 261 205 145 152 261 318 297 261 255 74 359 7 264 267 306 70 150 138 252 119 131 137 144 136 131 186 256
306 307 306 310 317 320 326 326 323 315 312 277 248 287 238 229 231 238 243 226 228 242 266 244 310 37 43 83 218 184 215 266 274 303 44 92 248 297 153 141 150 148 139 165 188
304 301 299 299 309 318 336 359 353 321 319 264 272 255 264 316 251 212 214 228 240 231 186 266 84 231 209 204 235 250 195 246 258 252 36 260 262 157 145 137 148 166 168 154 182
308 302 296 290 292 304 326 14 7 325 295 281 266 258 253 248 293 201 196 207 209 197 188 340 253 238 215 227 237 260 266 235 289 262 132 276 284 77 102 156 164 173 192 189 168
314 309 301 288 279 284 286 354 324 330 284 285 248 236 234 233 235 221 193 206 170 200 207 195 240 344 217 263 256 257 211 250 239 351 311 18 323 110 159 197 176 194 194 215 213
316 311 310 302 265 248 239 2 20 0 20 273 220 240 207 212 250 222 204 198 214 204 220 244 259 250 259 246 218 241 252 248 289 333 229 135 259 82 152 172 206 188 201 228 196
316 309 304 302 257 234 258 13 292 332 345 234 196 234 185 166 162 204 208 195 187 198 135 241 288 278 256 246 192 227 233 239 198 147 62 324 65 265 180 168 209 205 207 216 207
310 307 295 291 275 232 269 352 276 47 255 313 159 169 112 205 214 99 176 200 218 217 254 254 284 269 260 284 251 234 135 41 36 73 13 255 137 285 170 286 197 165 191 200 206
306 294 283 271 278 160 134 203 53 161 319 274 253 179 175 185 203 134 150 170 170 177 274 312 282 282 268 290 299 110 66 355 350 11 229 308 91 236 269 19 161 224 158 172 165
310 290 266 256 223 213 164 62 168 235 257 315 349 262 195 170 227 175 149 183 246 142 108 200 313 231 243 203 197 193 151 155 199 199 255 318 258 250 268 240 307 179 157 148 166
315 293 265 233 203 189 162 121 206 220 309 1 337 29 253 223 170 178 183 202 205 182 180 181 258 256 306 310 161 234 177 191 135 85 55 248 278 303 319 323 58 59 146 151 165
321 311 271 195 186 171 95 225 233 251 16 7 272 50 0 353 59 168 184 212 211 203 168 221 277 272 277 324 263 171 164 84 17 163 269 293 253 222 242 181 92 65 316 80 79
322 319 4 160 160 159 172 233 287 305 357 5 324 290 245 23 346 173 219 276 207 200 189 168 158 268 48 193 225 63 171 68 117 143 173 224 269 224 211 41 94 104 141 147 161
4 352 149 150 102 181 222 235 319 322 316 292 265 239 235 51 330 332 251 322 343 239 159 203 171 232 236 246 210 191 214 156 131 254 224 151 257 272 137 148 121 125 145 155 160
340 299 172 171 125 251 274 256 249 271 263 271 322 341 317 136 335 234 299 299 314 347 205 187 204 265 303 344 359 190 189 167 115 83 205 137 252 62 6 68 125 156 144 161 161
355 8 358 203 278 132 313 275 272 290 276 248 256 273 271 279 173 264 292 308 325 320 311 111 120 175 223 214 164 340 324 235 143 123 203 204 163 215 225 138 129 132 134 163 169
24 12 8 342 340 332 279 281 283 286 259 323 314 215 241 241 353 279 287 322 317 328 8 91 175 198 179 200 197 206 308 307 213 200 154 225 190 193 193 165 172 163 150 168 195
48 10 350 303 312 345 331 319 351 346 275 294 302 309 233 191 182 261 276 222 262 338 23 1 271 254 307 355 29 336 324 299 283 281 83 129 238 183 136 147 163 179 164 173 180
51 6 353 299 326 356 356 356 352 355 310 340 334 306 293 250 234 225 260 233 236 302 338 56 87 63 281 338 15 350 265 283 309 297 133 174 203 155 137 158 183 180 181 181 177